Theta_e
316 317 317 321 322 323 331 329 327 334 334 324 322 326 322 324 328 327 331 332 332 330 332 336 336 336 338 342 340 340 341 343 344 344 346 341 335 335 337 339 339 338 338 339 339 339 339 340 339 339 337 335 333 333 334 335 335 334 333 332 332 333 333 333 333 333 332 332 332 332 333 333 333 332 333 334 334 334 334 333 330 330 330 331 331 330 330 329 327 327 325 323 324 322 318 319 321
317 317 318 322 321 325 337 330 324 330 331 323 320 323 321 328 333 332 334 333 333 331 336 339 338 337 337 340 339 342 342 338 339 341 340 336 335 337 339 339 337 338 338 339 339 338 339 339 339 338 337 335 333 333 333 333 333 333 332 332 333 332 333 333 333 333 333 333 332 332 333 333 333 332 333 334 334 334 334 333 332 331 330 330 330 330 330 329 327 327 326 323 323 323 321 322 323
316 319 321 323 324 327 336 334 326 326 327 321 318 322 327 333 334 333 334 333 334 334 339 337 339 337 335 341 342 346 343 336 336 337 335 334 335 336 338 338 336 337 338 339 338 339 339 338 338 338 337 335 333 332 332 332 332 332 332 332 332 331 332 332 332 332 333 333 331 332 332 333 333 332 332 333 333 333 332 332 332 331 330 328 328 329 329 328 326 326 324 323 323 323 323 323 323
316 321 323 323 328 332 334 332 329 327 323 321 319 323 332 335 334 334 334 335 335 336 336 334 340 336 335 343 341 343 341 337 336 335 335 334 333 334 337 337 336 338 338 338 338 338 338 338 338 337 337 335 332 332 333 333 332 332 332 332 332 332 332 332 332 332 332 332 332 332 332 332 332 331 332 332 333 333 333 333 332 330 330 329 329 328 327 326 325 324 323 322 321 322 323 323 323
318 321 321 322 329 333 330 328 333 329 320 325 321 322 334 334 334 334 333 335 336 337 334 334 338 335 337 341 340 343 341 337 336 334 335 332 333 334 335 337 337 338 339 339 338 337 338 338 337 336 336 335 332 332 334 333 332 332 332 332 333 332 331 332 332 332 332 332 332 331 331 331 331 331 331 331 332 333 333 332 331 330 330 330 330 329 328 326 325 324 324 322 320 320 322 323 323
321 321 322 324 327 327 327 327 333 326 317 328 322 322 335 331 334 334 333 334 334 337 334 334 335 337 340 338 338 341 339 336 335 334 334 332 333 334 334 337 339 339 339 339 337 337 337 337 336 336 336 335 333 331 332 333 332 330 331 331 331 331 331 331 332 331 331 331 331 329 330 330 330 331 331 330 332 332 332 331 330 330 331 330 331 329 328 327 326 326 325 323 319 319 321 322 322
322 323 328 331 330 326 327 327 331 327 318 324 321 324 335 330 334 335 334 333 332 332 331 334 333 339 341 338 340 339 336 336 335 334 334 333 332 333 333 336 340 340 339 339 337 336 336 336 336 336 336 335 334 332 331 331 329 328 330 331 330 331 331 330 330 330 330 330 330 330 330 330 330 332 331 330 330 331 331 331 330 330 330 329 329 328 328 327 325 325 325 322 318 318 320 321 322
323 323 329 332 334 332 329 329 333 331 321 320 322 325 331 331 335 334 333 333 331 329 328 333 332 339 340 340 344 338 335 336 335 335 334 333 332 333 332 334 340 340 339 338 337 336 336 336 336 336 337 335 334 332 332 331 328 327 328 330 331 330 329 329 329 330 330 331 331 330 330 330 331 331 331 330 330 331 331 331 330 329 328 328 328 328 328 327 326 325 322 319 318 317 318 320 322
323 322 331 333 332 333 332 331 327 325 322 321 322 322 327 331 332 330 329 328 328 329 328 331 331 339 340 341 342 337 335 336 335 335 333 332 332 332 331 334 339 339 338 337 336 336 335 336 336 336 336 335 333 331 332 332 329 327 327 329 332 331 329 329 329 331 331 331 330 329 329 330 330 330 330 330 330 331 330 330 329 329 329 327 326 327 326 326 326 324 321 319 318 318 318 318 321
325 321 329 333 329 330 330 329 323 320 322 322 321 321 323 326 328 326 325 324 327 331 330 330 329 336 341 341 341 338 335 335 335 334 333 332 332 332 332 334 337 338 337 336 335 335 335 335 336 335 336 335 333 331 330 331 330 328 329 331 332 331 330 329 329 331 331 330 328 328 328 329 329 330 330 330 330 330 329 329 329 328 327 326 326 326 326 325 324 322 319 319 318 318 318 318 318
328 328 330 330 329 328 327 329 325 319 320 322 323 323 322 324 328 325 324 326 330 335 330 329 328 333 341 342 341 338 334 334 334 334 333 333 333 332 332 334 335 336 336 335 334 334 335 335 336 335 335 335 333 331 329 329 330 330 329 330 332 332 331 329 329 330 330 330 328 328 329 328 328 329 329 329 330 329 329 329 329 328 326 326 326 325 324 323 321 320 319 319 318 318 318 318 317
329 333 332 327 328 328 327 329 328 324 326 328 324 324 323 324 328 325 325 328 334 336 330 331 326 327 340 343 342 337 334 335 334 333 334 334 333 332 333 334 334 335 334 333 333 334 334 335 336 335 335 335 333 331 329 327 329 331 329 328 331 331 331 330 329 328 328 329 327 327 328 328 328 328 328 328 329 329 329 329 328 327 326 326 325 324 323 321 320 319 319 318 318 318 318 318 317
329 333 332 327 330 329 327 330 331 333 331 327 323 324 324 324 327 324 324 325 330 333 328 329 324 327 341 343 340 337 335 334 333 333 334 334 333 333 334 333 334 334 333 333 332 333 335 336 335 335 335 334 333 331 329 327 327 330 329 327 329 329 329 329 329 329 328 328 326 326 327 327 328 328 327 327 328 328 328 328 328 327 327 326 325 325 322 320 319 319 318 318 318 318 318 317 317
327 333 334 330 332 330 329 330 334 335 326 324 323 324 326 325 326 324 327 329 331 331 326 324 324 335 343 341 340 339 337 334 334 334 333 334 333 333 333 334 334 333 333 333 332 332 335 336 335 335 334 333 332 331 330 328 326 328 328 328 328 327 328 329 328 328 329 327 324 324 325 326 328 327 326 326 326 326 327 326 327 328 327 326 325 323 320 319 319 318 318 318 318 317 317 316 315
325 333 334 328 330 329 330 329 332 331 322 323 323 324 327 324 325 324 328 333 333 330 326 325 325 332 339 344 344 339 336 334 334 334 333 333 332 333 333 333 333 333 333 332 331 331 333 335 335 335 334 332 331 330 330 329 327 326 326 327 327 325 328 329 328 327 328 328 325 324 324 325 327 327 326 325 325 325 325 324 325 327 326 324 322 320 318 319 318 317 317 317 317 316 315 316 318
330 338 331 326 330 328 330 330 329 328 321 322 323 323 326 323 325 325 322 328 330 327 326 327 326 329 336 345 344 336 335 334 333 333 333 332 332 333 333 333 334 334 334 332 331 330 331 333 335 335 333 332 331 330 329 329 328 326 325 326 325 324 327 329 329 328 329 328 326 325 324 323 324 326 325 323 324 325 324 324 323 324 323 322 321 318 317 317 317 317 316 316 316 316 317 320 322
334 339 330 327 332 328 331 331 326 328 322 322 323 323 326 324 324 322 320 325 329 327 330 328 327 334 341 341 338 335 335 333 333 333 332 332 332 332 332 332 333 333 334 333 332 330 330 332 334 335 333 332 331 331 328 327 328 327 325 326 325 325 326 328 329 329 329 328 326 324 323 321 321 324 324 321 321 322 322 323 321 320 320 320 318 316 316 317 317 317 316 316 317 318 319 322 323
331 335 331 328 332 330 332 328 321 324 321 320 320 321 326 325 324 322 321 325 326 327 330 331 331 335 338 337 336 336 334 332 333 332 331 331 331 332 331 332 332 332 332 333 333 332 332 333 333 334 333 332 331 331 328 326 327 328 326 326 326 325 325 327 329 329 328 327 326 324 322 321 320 320 321 319 318 315 315 317 316 316 318 318 316 315 315 316 316 316 316 316 319 321 321 323 323
331 332 330 328 332 329 326 323 320 320 318 318 317 319 323 322 323 323 323 324 325 327 328 332 334 335 337 335 335 334 333 332 332 331 331 331 330 330 330 331 331 331 331 332 333 333 334 333 333 333 332 331 331 330 328 326 326 328 327 326 327 325 324 325 327 329 328 327 325 324 324 324 323 320 319 318 315 311 310 310 311 313 315 315 315 315 314 315 315 315 315 318 321 322 322 323 323
330 332 330 329 331 325 320 320 320 319 318 318 318 319 320 319 321 322 324 325 325 327 329 333 334 334 338 336 333 334 332 332 331 331 331 329 330 330 330 330 330 331 331 331 332 333 334 333 331 331 332 332 331 331 328 326 325 328 328 327 327 326 324 324 326 326 327 327 324 324 327 327 326 324 323 319 311 308 308 307 309 310 312 313 313 314 314 314 313 314 317 320 322 323 323 323 324
329 330 331 332 329 324 321 319 319 319 319 318 318 319 318 318 319 320 321 322 323 324 326 333 333 333 338 337 333 333 332 332 331 331 330 329 329 329 330 330 329 330 331 330 331 333 334 333 331 331 333 332 332 331 329 326 325 326 328 328 327 327 325 324 324 323 324 325 324 325 327 327 326 325 325 319 309 308 308 306 307 308 311 312 312 312 312 312 314 318 321 323 323 324 324 324 323
328 328 331 333 329 326 321 318 320 320 319 319 319 319 319 318 318 319 319 321 322 321 320 327 330 331 336 337 334 333 332 332 331 331 330 330 329 329 330 329 329 329 330 330 330 331 331 333 332 330 332 332 331 331 329 328 326 324 326 327 327 327 326 325 323 321 322 322 323 326 327 327 326 325 325 317 310 311 311 309 307 308 310 311 311 311 311 314 319 323 323 324 324 324 324 324 323
329 329 329 330 329 324 318 317 319 320 320 321 320 320 321 321 321 321 318 321 323 321 319 321 326 329 334 336 335 335 333 332 332 331 330 330 329 328 329 330 329 329 330 330 330 330 329 331 332 330 331 331 330 329 328 328 324 324 326 326 325 326 326 325 323 322 323 321 322 326 327 326 325 325 322 313 313 317 316 314 311 309 310 311 313 313 316 321 324 324 324 325 324 324 324 324 325
329 331 329 330 329 323 318 318 319 320 321 320 320 321 323 324 325 322 319 322 324 323 318 315 321 326 332 336 335 335 334 333 332 332 331 331 330 329 329 330 330 329 330 330 330 330 329 329 330 330 330 330 330 328 328 326 323 326 327 326 325 326 324 322 324 324 324 323 322 326 327 326 326 323 315 311 317 320 319 320 316 313 314 317 319 320 322 325 325 325 325 325 324 323 323 324 325
327 330 329 328 324 319 319 320 320 320 320 320 322 322 324 325 324 321 321 324 325 323 318 314 319 326 331 336 337 334 333 334 333 333 332 331 330 330 329 329 330 330 330 330 330 330 329 329 330 330 329 329 329 328 328 326 325 327 328 327 326 326 325 323 325 325 325 325 322 325 328 326 323 318 312 315 322 323 324 324 321 321 322 323 324 324 326 326 325 326 325 325 325 324 323 323 324
327 328 329 325 319 318 319 320 320 322 321 322 324 323 324 325 322 322 322 324 325 323 321 320 321 328 331 334 337 334 333 334 333 334 333 332 331 330 329 329 329 330 331 330 330 331 330 329 329 330 329 329 328 328 327 326 326 328 328 327 326 326 327 325 325 326 325 325 322 325 327 321 316 317 316 318 324 326 327 325 324 326 326 326 326 326 326 326 326 326 326 326 326 325 324 324 324
328 327 329 323 316 317 319 319 320 322 322 322 324 324 325 324 321 324 324 321 323 322 322 322 321 325 327 330 334 333 334 334 334 335 334 333 331 330 330 329 329 330 331 331 331 331 330 330 329 328 329 328 328 328 326 325 327 328 328 328 326 327 328 326 326 327 327 326 323 323 324 318 317 322 322 320 325 327 327 325 326 327 327 327 326 326 326 326 326 325 326 326 325 325 325 324 324
327 327 329 322 317 318 319 321 322 322 323 323 323 324 325 324 322 324 323 320 323 323 321 323 323 323 322 327 332 331 332 334 334 334 334 334 333 331 331 330 330 330 330 330 331 332 331 330 330 328 328 327 326 327 325 325 326 327 328 329 327 327 328 327 325 327 327 327 325 319 319 322 324 326 324 324 326 327 327 326 326 327 327 327 327 326 326 326 326 325 325 324 324 324 323 323 323
326 328 329 325 321 321 321 323 325 322 325 326 323 326 327 324 322 322 322 321 321 322 321 322 324 324 322 325 331 331 330 332 333 334 334 334 334 333 332 331 330 329 330 330 330 331 331 330 330 328 328 327 324 324 324 326 327 326 327 329 327 326 328 327 326 327 326 326 325 317 318 324 325 326 326 327 327 327 328 327 327 327 327 327 327 326 326 326 325 325 324 324 325 324 323 322 322
328 327 330 329 325 326 324 324 327 323 326 328 324 329 333 328 325 323 322 321 319 321 322 322 323 323 323 323 328 331 329 328 331 333 334 334 334 334 333 332 331 330 329 329 330 330 331 330 330 329 328 327 325 322 324 327 328 326 326 327 327 325 325 326 327 328 327 325 322 316 317 323 325 327 328 328 328 328 329 328 327 327 327 327 327 327 326 325 325 324 324 325 325 325 324 323 323
330 327 330 333 331 332 328 324 328 326 325 327 326 329 332 331 329 328 326 322 319 320 321 323 323 322 322 323 325 329 329 327 329 332 334 334 335 334 334 334 332 332 330 329 329 330 330 330 330 329 328 328 325 322 322 326 328 327 324 324 324 323 321 323 325 328 328 325 321 318 317 319 323 327 329 329 329 328 329 328 328 327 327 327 327 327 326 324 323 324 324 324 324 324 324 323 323
330 329 332 333 333 335 331 325 327 326 323 323 328 330 331 331 330 330 329 324 320 321 321 322 323 322 322 322 323 326 328 327 328 331 333 334 335 335 334 334 334 333 332 330 329 329 330 330 329 329 329 328 326 322 320 322 327 327 325 322 321 321 319 320 322 325 326 324 322 321 319 318 320 325 329 329 329 329 329 328 328 328 327 327 327 326 326 324 323 324 324 324 323 323 324 323 323
330 331 335 334 332 333 332 329 326 325 323 321 326 332 335 334 329 325 325 324 321 321 323 322 322 322 322 322 322 324 328 329 329 329 332 333 334 335 335 335 334 334 333 332 330 329 329 329 329 329 329 328 327 324 320 320 324 327 326 324 321 320 319 318 319 321 325 325 324 323 323 321 320 322 326 328 328 328 328 328 328 328 327 326 326 326 326 325 323 324 324 324 323 323 323 323 323
331 330 333 333 331 330 331 331 328 325 324 323 325 328 332 333 329 324 321 322 322 321 322 322 322 323 323 322 322 323 327 331 330 328 331 333 334 335 335 335 335 334 334 333 332 330 330 329 329 329 329 328 327 326 323 320 322 325 326 325 323 322 320 320 319 319 322 325 326 324 324 324 322 322 323 326 328 328 327 327 327 327 327 326 326 326 325 324 323 323 324 324 324 323 323 323 323
332 331 331 332 331 330 329 330 330 327 323 324 325 326 327 329 330 328 323 321 321 322 322 322 323 324 323 323 323 323 326 329 329 328 330 333 333 334 335 335 335 334 334 333 333 332 330 330 329 328 328 328 328 327 325 324 323 325 327 326 326 324 322 322 321 319 319 322 325 324 324 324 324 323 322 324 326 327 327 326 326 327 327 327 327 326 325 324 324 324 324 324 324 324 323 323 324
331 330 330 331 331 331 330 330 330 327 324 324 324 325 326 326 326 327 325 322 320 321 321 320 321 321 320 321 323 324 325 327 327 327 329 331 333 334 335 335 335 334 334 333 333 333 331 330 329 328 328 328 328 328 327 327 327 327 327 328 328 327 325 324 323 322 320 320 323 324 325 324 324 323 323 322 323 325 326 325 326 327 328 327 327 326 326 325 325 325 324 324 325 325 324 324 324
330 330 330 330 331 330 331 331 330 327 327 326 324 325 325 324 325 323 323 323 321 320 319 319 318 318 317 318 323 325 325 325 324 326 328 330 332 334 334 334 334 333 334 333 333 333 332 330 329 328 328 328 328 328 327 327 328 327 327 328 328 327 326 325 324 324 323 322 322 324 325 324 323 323 323 323 322 322 323 325 327 328 328 328 327 327 326 326 325 325 325 325 325 325 325 325 325
331 332 331 331 330 330 331 332 330 326 327 329 327 326 325 324 324 323 323 323 323 321 320 319 318 317 317 317 320 324 324 324 324 325 326 328 332 333 334 334 333 333 333 333 333 333 332 330 330 329 328 327 327 327 327 327 327 327 327 327 327 327 326 326 325 324 324 323 322 323 323 322 322 323 323 323 323 322 321 323 327 328 328 328 328 327 327 326 326 326 325 326 325 325 326 325 325
334 334 334 335 333 332 331 328 326 324 327 331 329 327 326 325 325 325 325 325 324 323 322 322 320 319 318 317 318 320 322 324 325 324 324 327 330 332 334 333 333 334 333 334 334 333 333 331 330 329 329 328 327 327 326 326 326 326 326 326 326 326 326 325 324 323 323 323 322 321 321 320 321 322 323 324 325 324 321 321 325 328 328 328 328 328 327 327 326 326 326 326 326 326 326 325 325
334 337 338 338 336 335 334 326 322 323 326 331 330 327 325 324 324 324 324 324 324 325 324 323 323 322 320 319 318 317 319 322 324 324 324 325 328 330 332 333 333 334 334 334 334 333 334 333 332 331 329 329 328 327 326 325 325 325 325 325 325 325 325 324 324 323 323 323 322 321 320 321 322 324 325 326 326 326 324 322 324 328 328 328 328 328 328 327 326 327 327 327 326 326 326 325 325
332 336 339 339 337 336 333 326 322 321 323 325 325 327 327 325 324 323 323 323 323 324 325 325 324 324 323 322 321 319 318 320 322 324 324 324 326 329 331 332 333 333 334 334 334 334 334 333 333 332 331 330 329 328 326 325 325 325 325 325 325 325 325 325 325 325 324 323 322 322 322 323 325 327 327 328 327 328 327 324 325 327 328 328 328 328 328 327 327 327 327 327 327 326 326 325 325
332 334 336 337 337 338 334 326 323 325 328 326 324 331 336 331 326 324 323 324 323 323 323 324 323 323 324 323 321 320 320 320 320 322 323 322 324 328 331 332 333 333 334 334 334 334 334 334 334 333 332 331 330 329 327 326 325 325 325 324 325 325 325 325 325 325 325 324 323 323 324 326 328 329 329 329 329 329 328 326 326 327 328 328 328 328 328 328 327 327 327 327 327 327 326 325 325
332 332 333 334 336 338 335 330 330 333 333 327 323 331 338 334 327 325 325 325 324 324 324 323 323 322 322 322 322 321 321 320 319 320 321 322 323 327 329 331 332 332 333 333 334 334 334 334 334 333 333 333 332 330 329 327 325 325 324 324 324 324 324 325 325 324 324 324 324 324 326 328 330 331 330 330 330 330 329 328 328 328 328 328 328 328 328 328 328 327 327 327 327 327 326 325 325
332 333 333 334 335 337 335 333 334 334 331 327 325 329 334 333 330 326 326 325 324 323 323 323 323 322 322 321 321 322 321 321 321 319 320 321 322 325 329 330 331 332 332 332 333 333 333 334 333 334 334 333 333 332 331 329 327 326 326 325 325 325 324 324 325 325 325 325 326 326 327 329 331 331 331 331 331 330 330 329 329 329 329 328 328 328 328 328 328 328 327 327 327 327 326 325 325
332 336 335 334 335 335 333 333 334 332 331 332 331 329 332 336 334 329 325 325 325 324 322 322 323 323 323 322 322 322 321 322 322 320 319 320 320 323 327 330 331 332 332 332 332 332 332 333 333 333 333 333 333 332 332 331 329 328 328 327 327 326 326 326 326 327 327 327 327 328 328 329 331 331 331 331 331 331 331 330 330 330 329 329 329 329 329 328 328 328 328 327 327 327 327 326 325
331 334 333 332 333 331 330 333 335 333 333 335 333 330 333 338 335 329 326 326 327 324 322 321 321 321 322 323 322 322 321 321 322 322 319 317 318 322 324 328 330 331 331 331 331 331 332 332 332 333 333 333 333 332 332 332 331 330 330 329 329 328 328 328 329 329 329 329 328 329 330 330 331 331 331 332 332 332 331 331 331 330 330 330 329 329 329 328 328 328 328 328 327 327 327 326 325
329 331 331 331 331 330 331 332 333 335 335 334 334 331 331 335 332 327 327 329 330 325 323 323 321 321 321 321 322 322 321 321 323 323 319 315 316 319 322 325 328 330 331 331 331 331 331 331 331 332 332 332 332 332 332 332 331 331 330 330 330 330 330 329 330 330 330 330 330 330 330 330 331 331 331 332 332 332 331 331 331 331 331 330 330 329 329 328 328 328 328 328 328 327 326 326 325
329 330 330 331 331 330 332 332 332 337 336 332 333 330 328 333 332 326 325 327 328 324 324 326 326 325 324 321 321 322 322 323 323 325 322 317 317 317 318 322 326 328 330 330 331 330 330 331 330 331 331 331 332 332 331 331 331 331 330 330 330 330 330 330 330 331 331 331 331 331 331 331 331 331 331 331 332 332 332 332 331 331 331 331 330 329 328 328 328 329 328 328 328 327 326 326 325
329 329 330 333 333 332 334 334 333 336 332 326 327 328 328 329 328 326 327 327 327 325 324 326 328 329 329 327 325 324 325 325 324 325 324 322 321 316 313 317 322 326 328 329 330 330 330 330 330 330 331 331 331 331 331 331 331 330 330 330 330 330 330 331 330 330 331 331 331 331 331 331 331 331 332 331 332 332 332 332 332 332 331 331 331 330 328 328 328 329 328 328 327 327 327 326 325
329 328 330 333 333 335 337 335 334 335 330 325 325 328 329 329 327 326 324 324 326 325 322 324 326 326 328 333 335 333 331 329 326 325 324 325 322 316 313 314 317 322 326 328 328 329 329 330 330 330 330 330 330 331 331 331 330 330 330 330 330 330 330 330 330 330 330 330 331 331 331 331 331 331 331 332 332 332 332 332 332 332 331 331 331 330 329 328 328 328 328 328 327 327 326 325 325
328 326 328 331 332 335 336 334 334 333 328 323 324 328 330 331 330 326 322 322 324 322 322 322 322 324 325 331 336 335 334 334 331 327 325 325 318 313 314 314 314 317 322 326 327 328 329 329 329 330 330 330 330 330 331 330 331 330 330 330 330 330 330 330 330 330 330 330 330 331 331 331 331 331 331 331 331 332 332 332 332 332 332 331 331 330 329 329 328 328 328 328 327 326 325 324 324
328 327 328 329 330 332 333 332 332 331 329 325 324 328 330 329 326 321 319 321 321 320 321 320 320 323 324 325 327 328 331 335 336 332 330 327 316 310 313 314 314 315 317 322 326 327 328 328 328 329 329 329 329 330 330 330 330 330 330 331 330 330 330 329 330 329 330 330 330 330 330 330 330 330 330 330 330 331 331 331 331 331 331 331 330 330 329 329 329 329 328 327 327 326 324 323 323
328 328 329 327 328 332 334 330 327 329 330 327 326 328 327 325 322 319 319 322 322 321 320 319 321 323 322 323 326 329 332 334 335 334 335 332 318 311 313 314 314 314 314 318 324 326 327 327 328 329 328 329 329 329 330 330 330 330 330 331 331 331 331 330 330 329 329 329 329 330 330 330 330 330 330 329 329 329 329 329 329 330 331 331 330 330 330 329 329 328 328 327 326 325 325 324 323
327 329 327 324 327 332 336 333 329 328 328 327 326 325 324 324 324 323 321 321 323 322 320 318 322 324 323 325 327 328 331 333 334 333 334 330 316 309 313 314 314 314 314 316 319 323 327 327 327 328 328 329 329 329 329 329 330 330 330 331 331 331 331 330 330 330 329 329 329 329 329 329 330 329 329 329 329 329 329 329 329 329 330 330 330 330 330 329 329 328 328 327 326 326 325 324 323
326 327 325 326 329 329 331 332 331 330 328 327 328 326 325 323 322 324 323 321 321 321 320 320 322 323 324 325 326 325 327 331 333 333 334 332 317 307 310 313 312 314 314 314 315 317 322 325 326 327 327 328 328 329 329 329 329 330 330 330 330 331 331 330 331 330 330 329 329 329 329 329 329 329 329 329 329 329 329 329 329 329 330 330 330 330 329 329 328 327 327 326 325 325 323 322 322
326 325 324 328 329 327 328 328 330 331 325 324 327 327 329 326 321 322 323 323 324 323 323 323 322 321 321 324 325 324 327 332 336 335 336 337 321 308 309 312 311 312 312 312 313 313 314 318 321 324 326 326 327 328 328 329 329 329 329 330 330 330 330 330 331 330 330 329 329 329 329 329 329 329 329 329 329 329 329 329 329 329 330 330 330 329 329 329 328 326 326 325 325 324 322 322 321
327 327 326 328 326 327 328 327 331 333 328 327 326 322 327 328 323 321 320 321 324 323 323 324 325 323 321 323 323 324 329 334 337 335 335 336 321 310 312 313 312 313 312 311 311 311 311 312 314 316 319 322 324 325 326 327 328 329 329 329 329 330 330 330 330 330 330 330 330 329 329 329 329 329 329 329 329 329 329 329 329 329 329 330 329 328 328 328 327 326 325 325 324 323 322 321 321
327 327 327 327 325 327 329 328 330 331 329 332 328 321 324 327 322 320 320 320 320 321 322 324 329 330 328 329 329 331 332 334 334 333 334 333 319 311 313 313 313 313 312 311 311 310 311 310 311 311 313 315 318 319 321 323 325 327 327 328 328 329 329 329 330 330 330 330 329 329 329 329 329 329 329 329 329 330 329 329 329 328 328 329 328 327 327 327 326 325 325 324 323 322 321 320 319
Wind_Speed
14 15 16 15 16 15 10 2 2 3 3 3 2 1 2 1 3 4 5 4 3 2 2 3 3 4 5 7 10 9 5 2 1 2 2 5 14 17 17 18 18 17 18 18 17 17 16 15 15 15 15 14 14 14 15 15 16 15 15 16 17 16 16 16 17 17 17 17 17 17 17 17 17 17 17 17 16 17 18 19 19 19 19 18 18 18 18 18 17 18 18 19 20 20 21 22 23
14 15 15 15 13 6 3 1 3 3 5 4 2 2 2 4 6 6 5 4 2 1 2 4 5 7 9 10 9 7 7 5 3 2 3 12 18 18 19 18 16 17 19 18 17 18 17 16 15 15 14 15 14 15 15 16 16 15 15 16 16 16 16 16 16 17 17 17 17 17 17 17 17 17 16 16 16 16 17 17 17 18 18 18 18 18 17 17 17 18 18 19 20 20 21 22 23
13 15 16 16 8 1 1 3 3 1 4 3 2 1 3 6 6 5 6 6 4 3 4 5 5 5 7 8 5 5 2 3 7 5 5 15 17 17 20 15 13 16 18 18 17 17 18 17 16 15 14 15 15 16 16 16 15 14 16 16 15 15 15 15 15 16 16 17 17 17 17 16 17 17 16 17 16 16 16 17 17 17 17 17 17 17 17 17 17 18 18 19 20 20 20 22 23
13 13 16 12 5 2 3 3 2 3 4 3 1 2 4 6 6 5 5 4 3 4 3 3 4 2 6 9 5 5 4 2 7 6 5 13 15 17 18 13 13 15 17 16 16 17 18 18 16 16 15 16 16 16 16 14 14 15 16 16 15 15 15 15 15 15 15 16 16 16 16 16 16 16 16 17 17 16 16 16 17 17 16 17 17 17 17 17 17 18 19 19 20 20 20 21 22
12 13 12 5 2 2 2 2 1 4 3 3 3 2 5 7 7 5 3 3 4 5 3 2 2 2 6 5 2 3 3 4 8 8 9 15 18 19 17 14 15 15 16 15 16 17 17 17 16 16 15 15 16 17 16 13 14 16 15 15 15 15 15 15 15 15 15 16 16 16 16 16 16 17 17 17 16 15 15 16 17 17 16 16 17 16 16 17 17 18 18 18 20 20 20 21 21
13 14 7 1 1 1 2 3 3 2 1 4 5 3 6 7 7 6 3 4 5 5 4 3 3 3 5 3 4 3 2 6 8 10 16 20 20 19 17 16 17 16 15 15 16 16 16 16 16 16 14 14 15 16 16 14 14 16 15 13 14 15 15 14 14 14 15 15 15 15 15 15 15 16 16 15 15 15 15 15 16 17 16 16 16 16 16 16 16 17 16 17 19 20 21 21 20
12 11 4 2 2 0 3 2 1 0 0 2 6 6 7 7 7 7 4 3 5 4 4 2 4 6 3 1 4 6 4 13 12 16 22 23 22 19 17 17 18 17 15 15 15 16 16 16 16 16 14 14 14 15 15 14 13 14 15 13 14 15 14 14 14 14 14 14 14 15 15 15 15 15 15 14 14 14 15 15 15 16 15 15 15 15 15 15 14 15 15 16 18 19 19 19 20
8 3 1 3 3 2 2 1 3 2 1 1 5 6 8 8 7 6 4 2 1 1 2 2 4 6 3 3 3 6 11 17 18 23 26 25 24 20 18 16 19 19 15 14 15 16 15 16 17 16 15 13 13 14 13 13 12 13 15 14 15 15 14 14 14 14 14 14 14 14 14 15 15 14 14 14 13 14 14 14 14 14 14 14 14 14 14 14 13 14 15 16 18 18 18 17 17
5 1 2 3 1 3 2 2 2 1 1 2 4 4 7 8 7 7 5 3 3 2 2 1 5 5 2 6 5 4 12 19 25 27 26 25 23 20 18 17 20 20 16 13 13 16 15 16 17 17 16 14 13 14 13 13 12 13 14 14 14 14 14 14 13 13 13 13 14 14 14 14 14 14 14 14 13 13 13 13 14 13 13 13 13 13 13 13 12 13 15 16 16 17 17 16 15
3 1 1 1 2 3 4 3 0 1 1 2 3 4 5 5 6 7 6 5 4 3 1 1 6 6 5 6 3 3 12 22 26 25 24 24 21 20 19 16 18 18 16 12 13 16 15 17 18 17 16 14 13 13 13 13 12 13 14 14 14 14 14 14 13 12 12 13 13 13 13 14 14 14 13 13 12 11 12 12 12 12 11 12 12 13 12 12 12 13 15 15 15 15 16 16 15
2 2 1 1 3 2 2 3 2 1 0 2 3 2 3 3 5 6 6 5 4 4 1 3 5 6 7 4 1 5 17 22 23 24 23 20 18 20 19 16 15 15 15 11 13 16 16 18 18 16 15 14 13 13 13 13 13 12 12 13 13 15 15 14 13 12 12 13 13 12 12 12 12 13 13 12 12 11 11 11 11 11 10 10 10 10 11 12 12 13 14 14 14 14 14 14 15
1 3 2 1 0 1 2 3 3 2 4 4 3 4 2 3 4 4 7 6 4 4 0 1 2 4 6 2 2 8 18 19 20 24 20 16 18 22 20 16 15 14 13 10 13 16 16 19 18 17 16 14 13 13 12 12 14 13 11 11 12 14 15 14 13 12 12 13 13 12 12 12 11 12 12 12 11 11 11 11 11 10 10 9 9 9 9 11 12 12 12 12 12 13 13 13 14
0 1 3 0 2 1 3 3 1 2 5 3 1 4 2 4 3 2 7 6 5 6 1 4 2 5 5 2 2 7 13 17 21 21 17 16 19 22 19 16 15 14 12 10 12 15 17 19 19 17 16 14 13 12 12 12 14 14 12 11 12 13 13 12 12 13 13 13 14 13 13 14 13 12 11 11 11 11 11 10 11 10 10 9 9 9 9 10 10 10 10 11 11 12 12 12 13
1 1 4 1 1 1 3 2 1 3 2 3 2 4 3 3 2 2 6 6 3 5 3 3 4 7 4 2 2 3 9 19 23 20 16 16 19 20 17 15 15 15 13 10 11 16 18 18 18 17 15 15 13 12 11 11 14 15 13 12 12 12 12 11 12 14 14 13 12 12 13 13 13 12 11 11 11 11 11 11 11 10 10 10 9 8 8 9 9 9 9 10 10 11 12 12 13
2 1 3 1 2 2 2 2 1 5 2 4 3 2 3 1 3 6 6 5 1 2 1 2 4 4 4 5 4 6 14 23 24 21 17 17 18 18 17 16 15 14 13 11 12 15 17 17 17 16 16 16 14 12 12 12 13 14 14 12 11 11 11 10 12 14 14 11 10 10 10 11 11 11 10 9 9 10 9 10 10 9 9 8 7 7 7 8 8 8 8 9 10 11 13 14 15
2 2 3 1 2 2 2 3 1 4 3 4 3 2 4 2 2 6 2 4 1 2 2 2 1 2 4 5 8 15 22 27 24 22 19 17 17 17 17 17 16 15 14 13 12 14 16 16 16 16 16 16 14 14 13 14 14 14 14 13 11 11 11 10 11 14 13 11 9 9 8 10 10 10 9 8 9 9 8 9 8 8 8 7 6 6 8 8 8 8 8 9 10 12 14 15 15
2 3 2 2 2 3 2 2 2 2 2 3 4 2 4 2 3 3 1 5 3 1 4 2 2 3 2 5 16 26 28 28 25 24 22 19 18 17 17 18 18 17 16 15 13 14 15 15 16 16 16 16 15 15 14 15 16 15 14 13 12 11 11 12 12 13 13 11 9 8 7 8 10 10 8 7 8 8 8 8 7 6 7 7 7 8 8 8 7 7 8 9 10 11 12 13 13
3 2 3 3 3 3 3 1 1 3 2 2 3 1 5 2 1 1 2 5 3 2 4 3 6 6 7 15 25 30 29 28 27 26 23 20 19 18 17 18 21 18 16 17 16 16 16 15 16 16 17 16 15 15 15 16 17 16 15 14 13 12 12 13 14 13 12 11 9 7 6 7 9 9 8 7 7 7 8 8 7 6 6 7 7 7 7 8 7 8 8 9 10 9 10 10 10
3 2 3 4 4 3 3 3 5 4 4 3 1 2 4 3 1 1 1 1 2 4 2 3 6 6 10 17 25 28 28 28 26 26 23 21 21 19 18 19 22 19 17 20 19 19 18 15 16 17 17 17 16 15 14 16 18 18 16 15 14 13 13 14 14 13 12 10 10 8 8 8 7 7 7 6 6 7 7 7 7 7 7 6 6 7 7 8 8 8 8 8 8 8 7 8 7
3 3 3 5 4 2 2 2 5 5 6 5 1 2 4 1 0 1 2 2 3 5 3 3 5 6 8 11 20 25 24 24 24 24 22 22 21 21 21 22 24 21 20 21 19 19 19 16 16 16 17 19 18 16 14 15 17 18 17 17 15 15 14 14 14 13 12 11 11 10 9 9 7 6 5 4 6 6 7 7 8 8 8 7 7 8 8 8 8 8 8 7 7 7 7 5 5
3 4 5 4 4 3 3 3 5 5 6 7 4 4 3 1 2 1 2 2 2 5 5 7 9 10 10 10 16 21 21 21 21 22 22 22 22 22 22 24 26 24 21 21 21 20 19 17 16 16 19 21 20 18 15 14 16 18 18 18 17 16 15 14 14 13 13 12 13 12 10 10 9 7 6 5 6 7 7 7 8 9 9 9 9 9 9 9 9 9 7 7 6 6 5 3 2
2 5 6 5 5 5 5 4 5 4 5 6 6 4 1 1 1 0 3 3 4 4 5 8 10 13 14 14 16 18 18 18 19 20 21 22 23 23 23 23 25 25 22 22 24 23 21 19 17 18 20 22 20 19 16 13 15 18 19 18 18 17 16 15 14 14 14 14 16 13 10 12 12 10 8 8 8 8 8 8 9 10 10 9 9 9 10 10 9 8 6 5 4 4 2 1 1
3 4 5 6 6 5 4 4 4 3 5 6 6 4 2 1 2 3 5 5 7 6 6 7 11 17 20 19 17 15 15 17 19 22 23 24 25 26 26 26 26 27 26 26 27 26 25 23 20 21 22 22 19 18 16 14 16 19 18 17 17 17 16 16 15 14 13 15 18 14 12 15 15 13 11 10 10 9 8 9 9 10 10 9 9 9 10 9 7 5 5 4 3 3 2 1 1
6 4 4 8 7 6 5 5 3 3 4 4 6 4 2 3 1 1 3 6 8 6 5 8 13 20 20 17 15 15 17 19 21 24 26 27 27 27 29 29 28 29 29 28 28 27 27 27 25 23 24 23 20 19 18 16 17 19 18 16 16 15 15 17 17 15 14 14 17 15 14 16 16 14 13 12 11 9 8 8 9 10 10 8 8 8 7 6 5 4 3 2 2 2 3 1 3
8 6 5 5 4 6 6 5 3 4 4 3 5 4 3 5 3 2 5 7 7 5 4 8 11 15 15 13 14 14 16 19 21 23 24 26 26 24 25 29 29 30 31 30 29 28 28 29 29 27 26 25 22 21 20 19 19 19 20 19 17 16 16 17 17 16 16 16 17 16 14 15 15 14 13 13 12 9 8 8 8 8 8 6 6 7 6 4 3 2 0 1 2 1 1 1 3
7 9 6 3 4 6 6 5 4 4 3 3 4 3 5 5 3 3 8 9 9 5 6 6 8 11 11 11 13 14 13 17 20 22 23 24 26 24 23 27 29 30 32 30 30 30 28 28 30 30 29 28 25 22 20 21 21 20 21 21 19 18 17 17 18 18 18 18 19 18 15 14 15 13 11 12 13 10 9 8 8 7 6 5 5 5 5 4 3 4 4 4 4 4 3 1 2
6 10 8 5 7 6 6 6 5 3 2 3 4 4 5 3 4 4 6 7 7 5 6 6 7 9 11 10 11 15 15 18 23 23 22 21 25 28 25 26 29 31 32 31 31 29 29 29 30 31 30 29 28 25 22 21 23 22 21 21 21 20 18 17 18 19 19 18 19 20 16 14 14 13 11 12 13 12 10 10 9 9 8 6 5 5 5 6 6 7 7 6 6 6 6 5 5
3 8 8 6 7 4 6 7 6 4 1 5 6 4 4 2 5 7 6 5 5 9 8 8 8 8 9 9 10 13 15 20 24 23 22 23 26 30 30 29 29 32 34 33 33 31 30 31 30 32 32 30 30 29 26 24 24 24 22 22 23 22 20 18 19 19 19 18 18 20 19 16 15 13 12 12 12 12 10 9 10 10 10 9 8 7 8 8 8 8 8 7 6 6 6 7 7
0 5 6 5 5 3 6 5 5 6 3 6 6 2 5 5 8 8 8 7 6 9 9 9 9 8 8 9 8 10 14 19 22 22 25 28 29 30 32 33 31 32 34 34 33 33 33 33 32 32 32 31 30 31 30 27 25 25 26 24 24 24 23 21 20 20 20 20 18 19 21 19 18 16 14 13 12 13 12 10 11 11 10 11 11 10 10 10 9 9 9 9 8 6 3 2 4
2 3 4 4 4 3 6 4 5 7 4 6 7 2 6 8 10 9 9 9 7 8 9 8 7 7 7 8 8 9 13 17 20 24 28 29 31 31 32 34 33 32 33 33 33 34 34 34 34 33 33 32 30 31 31 29 26 26 28 27 25 26 26 25 23 22 22 21 20 20 21 21 20 19 17 15 14 15 15 12 12 12 12 13 13 12 11 10 10 9 9 10 10 9 7 4 5
2 2 1 4 3 4 7 7 7 6 4 8 8 5 8 6 8 10 9 8 10 9 9 8 7 7 7 7 8 8 11 18 23 27 28 30 32 33 33 34 34 32 31 33 35 34 34 34 34 34 34 33 31 31 32 31 27 26 29 28 26 26 27 27 26 25 24 23 21 20 21 22 22 22 20 18 17 17 17 16 14 15 14 14 14 13 11 10 10 10 8 8 7 8 8 7 6
2 4 3 3 4 3 5 7 11 9 4 6 9 4 7 6 9 11 8 7 11 12 10 9 8 8 8 7 8 8 9 16 23 25 27 31 32 33 34 34 35 35 32 32 34 34 35 35 35 35 35 34 33 32 32 32 30 27 28 28 27 27 28 29 28 26 24 24 23 22 22 22 23 23 23 22 21 20 20 18 17 17 17 17 16 14 13 10 10 9 8 9 8 8 8 5 5
2 4 4 3 5 3 4 3 10 12 4 4 8 5 4 4 8 8 6 7 10 11 10 10 9 8 8 7 8 8 8 11 15 20 26 30 32 34 35 35 36 38 36 33 33 35 35 35 36 36 36 36 35 34 33 34 33 30 29 28 28 28 28 29 29 27 25 25 25 24 23 23 24 24 24 24 23 23 22 21 20 19 18 18 17 16 15 12 11 11 10 10 9 9 10 7 5
3 2 3 2 4 5 3 3 6 10 8 7 9 7 7 6 6 5 3 5 8 8 8 9 8 7 7 7 8 8 8 9 10 18 27 30 33 34 35 36 36 38 39 36 34 35 36 36 36 37 37 37 36 35 35 35 35 33 31 30 29 29 29 29 30 29 28 27 27 26 25 23 24 25 26 25 24 23 23 23 22 20 18 18 19 19 17 13 12 13 12 11 9 8 10 10 7
6 4 4 2 3 6 7 5 4 9 9 9 8 8 11 10 7 7 6 3 6 8 8 8 8 8 8 7 8 9 10 10 13 22 29 32 33 33 34 35 36 37 38 38 36 35 36 37 37 37 37 37 37 36 35 35 35 35 33 31 31 30 31 31 30 31 31 30 29 28 27 25 24 24 26 27 26 25 24 24 22 21 20 20 21 21 19 15 15 15 14 13 11 10 11 11 10
9 6 5 5 5 6 7 6 6 10 9 8 9 9 12 12 10 10 8 5 6 8 8 8 8 8 8 7 7 9 11 11 16 25 30 31 33 33 33 33 34 36 36 37 36 35 37 38 37 38 38 37 37 35 35 35 35 35 34 33 33 33 33 33 32 31 32 32 32 30 29 27 26 25 25 27 28 28 27 25 23 23 22 21 23 23 20 18 18 18 17 15 13 13 13 12 11
9 6 6 8 7 6 7 6 7 9 9 8 10 10 12 13 12 11 10 8 8 10 10 9 9 8 8 8 8 10 12 12 18 25 28 29 31 32 32 31 32 33 34 36 36 35 37 38 39 40 40 39 38 38 37 37 36 36 35 36 36 35 35 34 33 33 32 33 33 32 31 29 28 27 26 26 28 30 29 28 25 25 24 23 24 23 22 20 20 19 19 17 16 15 15 13 12
8 7 6 7 8 7 8 7 7 8 7 6 9 10 12 13 11 10 9 9 11 12 12 11 11 10 9 10 11 11 11 10 13 19 23 27 29 30 32 31 32 33 34 37 38 37 36 38 40 41 41 41 41 41 40 40 39 38 37 37 36 35 35 35 35 34 33 32 32 33 33 31 30 30 28 28 28 30 31 31 29 27 27 27 26 24 23 21 22 22 20 19 18 17 16 15 15
5 5 6 6 6 6 6 4 3 5 5 4 7 8 10 12 11 9 9 10 11 12 12 13 13 12 11 12 12 11 10 9 10 12 17 24 28 30 32 33 34 35 36 37 38 38 36 37 39 40 41 41 42 42 42 42 41 40 38 37 36 35 35 36 36 34 33 33 32 33 33 33 33 32 31 30 30 31 32 32 32 31 30 29 28 27 25 24 24 24 23 22 20 18 16 15 16
6 4 4 4 4 6 5 3 1 3 4 3 3 5 6 8 9 9 10 11 10 9 11 13 12 13 14 14 13 12 12 11 10 10 13 20 26 29 31 33 35 35 35 36 37 38 38 38 39 40 41 41 42 42 43 43 41 39 38 36 36 35 34 35 35 34 34 34 34 34 35 35 34 34 32 32 31 31 32 33 33 33 32 30 30 29 28 27 27 26 25 24 23 21 18 17 18
8 6 5 4 5 6 3 1 1 2 3 1 1 4 6 6 10 12 10 9 10 11 11 11 11 12 13 13 12 13 12 12 12 13 12 15 21 27 31 34 35 35 36 36 37 39 40 42 41 40 40 41 41 42 43 41 39 37 36 32 30 31 30 31 33 35 36 37 37 37 37 36 35 35 34 33 32 31 32 33 34 34 33 31 31 31 30 29 28 28 27 25 26 24 21 19 19
7 10 9 6 5 4 1 1 2 1 4 2 2 4 6 5 10 12 8 5 9 11 11 13 13 12 10 10 11 11 11 11 12 13 13 15 21 26 30 33 34 35 38 40 41 41 42 42 41 40 40 41 41 41 41 40 39 37 36 33 30 30 30 32 37 39 39 40 40 39 38 37 37 36 36 35 34 33 33 34 34 35 35 33 32 31 31 30 28 29 28 27 27 26 23 22 21
8 10 10 7 5 5 3 3 3 3 4 3 2 5 7 4 4 8 6 5 8 9 9 13 14 12 12 11 11 11 11 11 10 12 13 15 20 23 27 32 36 37 40 42 42 42 42 41 40 41 41 42 42 41 41 41 40 39 38 38 37 35 34 37 40 40 40 40 40 39 39 39 39 38 38 37 36 35 35 35 35 36 36 35 34 33 32 31 29 30 30 29 28 26 25 24 22
7 7 11 9 7 6 4 3 4 3 2 4 2 2 4 6 5 7 8 8 10 10 11 12 11 13 14 13 13 12 13 12 11 12 12 14 20 24 27 33 38 40 41 41 40 42 43 41 41 42 42 42 42 41 41 42 42 40 40 39 38 39 39 38 38 38 39 39 39 39 40 40 41 41 40 39 38 37 37 37 36 36 37 37 35 35 34 32 30 30 30 30 29 27 27 27 24
5 9 11 7 5 3 0 1 3 1 0 4 4 2 2 7 5 5 7 9 10 13 14 13 12 13 13 13 14 14 15 14 12 12 13 15 21 27 31 34 37 40 40 39 40 42 44 44 42 41 42 42 41 41 42 43 44 42 40 39 38 40 40 37 34 35 37 37 38 39 40 40 41 41 41 41 40 39 39 38 37 37 38 38 37 36 35 33 32 31 31 31 30 28 28 28 27
3 10 9 6 6 4 3 3 2 1 2 7 6 5 3 7 4 3 3 5 8 11 12 13 14 13 11 11 13 13 12 12 11 12 12 16 23 28 30 31 33 36 37 37 39 40 40 42 41 40 42 42 42 41 42 43 44 42 40 39 39 39 38 34 31 32 35 36 37 38 39 39 40 41 41 41 40 40 40 39 39 39 39 39 38 37 36 35 34 33 32 31 31 29 29 29 28
8 9 8 6 4 4 3 1 2 1 6 8 9 10 5 6 4 5 4 5 8 10 9 9 11 11 11 11 12 12 10 9 10 10 10 15 23 28 28 28 31 33 35 35 35 36 36 37 39 40 42 42 41 41 41 42 43 43 43 42 41 40 38 34 31 32 33 34 36 38 38 38 39 40 40 40 41 40 40 40 40 40 40 40 40 39 38 37 35 34 32 32 32 31 31 30 29
10 6 5 5 2 2 2 2 1 5 9 5 8 11 8 8 6 3 5 6 7 9 8 8 10 10 12 11 11 11 10 9 9 9 9 11 16 20 22 25 28 30 31 33 34 35 35 36 37 39 41 42 41 40 41 42 42 43 45 44 43 42 38 35 34 34 34 34 36 36 36 36 37 38 38 40 41 40 39 40 41 40 40 41 41 39 39 38 36 34 34 33 33 33 32 32 31
8 6 8 6 3 3 4 3 3 7 5 1 6 8 6 10 8 5 8 9 8 8 8 9 9 9 9 9 10 9 7 8 9 9 9 9 9 13 18 22 25 28 31 33 35 35 36 37 38 39 42 43 42 41 41 42 42 43 45 45 44 41 38 36 36 35 35 35 35 35 35 36 36 37 38 40 41 41 40 40 41 41 41 42 42 40 38 38 37 35 35 35 34 34 33 32 32
11 11 11 10 6 5 8 7 3 4 3 1 4 5 3 7 6 8 13 13 13 11 9 9 8 8 8 7 8 7 6 8 8 8 9 9 9 13 18 23 24 27 31 34 35 36 36 36 37 38 41 42 41 41 41 41 42 43 44 44 43 40 38 38 37 37 36 35 35 35 36 37 38 39 40 41 41 40 40 40 41 41 41 41 41 40 39 38 37 36 36 36 36 35 33 32 31
13 12 11 10 7 5 7 7 5 4 2 2 2 2 4 4 3 7 11 13 14 11 9 9 8 8 9 8 7 6 6 6 6 7 8 8 10 14 19 22 24 26 30 32 34 35 35 35 36 37 39 40 39 40 40 40 42 43 42 41 41 40 39 39 39 39 38 37 36 37 37 38 39 40 40 40 39 38 39 39 39 40 40 40 40 40 39 38 37 37 37 36 36 34 32 31 30
8 6 8 10 6 4 3 3 5 4 2 2 3 3 5 5 6 8 6 7 10 11 12 12 11 8 6 7 8 7 6 6 5 6 8 8 10 14 17 20 23 25 27 30 32 33 34 34 35 36 39 40 38 38 39 40 41 41 40 40 41 41 40 39 40 40 40 39 38 38 39 40 39 39 39 39 39 39 39 39 39 39 39 38 39 40 40 39 38 37 37 36 35 33 31 31 30
6 6 8 5 3 5 4 1 1 4 2 4 4 5 5 2 8 10 9 10 9 11 11 9 9 8 5 6 7 7 7 7 6 7 7 7 8 12 17 20 22 24 25 28 31 33 35 35 35 36 38 37 36 37 39 39 40 39 39 40 40 40 41 42 42 41 41 39 38 38 39 39 39 39 39 39 39 39 39 39 39 40 39 38 38 39 40 40 39 38 38 36 34 32 32 32 31
8 9 10 5 3 2 4 2 1 3 4 4 4 9 6 1 6 6 8 13 12 12 9 5 7 8 7 8 8 7 8 7 7 7 7 6 7 11 16 18 21 23 25 27 30 32 33 35 36 36 36 36 36 37 38 39 39 38 39 40 41 41 42 43 43 42 40 38 38 39 39 39 39 39 39 39 39 38 38 38 38 39 39 39 39 40 40 40 39 39 37 36 34 32 33 33 33
5 8 10 7 3 3 3 4 4 4 7 5 4 9 6 6 8 2 5 13 13 12 10 7 9 9 8 9 9 8 8 6 6 6 6 6 7 11 14 16 18 20 22 24 25 27 29 32 34 35 36 37 37 36 37 38 38 39 40 41 42 42 42 42 42 41 39 38 39 39 38 39 39 38 39 39 38 38 37 37 37 38 39 40 40 41 41 40 39 38 36 35 33 33 34 34 34
2 5 8 5 3 5 6 5 3 4 7 6 4 5 4 7 8 5 7 11 10 11 10 9 11 11 9 8 8 9 7 6 7 6 7 6 7 10 13 15 16 17 19 20 21 22 24 27 29 32 34 34 34 35 36 37 39 40 41 41 41 42 42 41 40 39 38 39 39 39 39 39 39 38 38 39 39 39 38 37 38 38 39 40 40 41 42 41 39 37 36 35 34 33 33 32 32
5 9 10 7 3 2 3 4 3 4 4 4 5 6 7 6 5 9 12 11 11 12 11 10 9 9 9 9 9 8 7 6 6 6 6 6 6 8 10 11 13 14 16 17 18 19 21 23 26 28 30 32 33 35 36 37 38 39 39 39 39 40 40 39 38 38 38 39 39 39 38 38 38 38 38 38 39 39 39 38 38 39 39 39 39 40 41 41 40 38 38 37 35 34 33 33 33
9 10 11 10 7 5 4 6 3 3 3 4 4 7 8 5 5 9 11 11 12 13 11 8 7 8 9 9 9 7 6 6 6 6 6 5 6 8 8 9 10 12 13 15 16 18 20 23 25 26 28 30 31 32 32 32 33 34 35 36 37 36 36 36 37 37 38 38 38 38 37 36 36 37 37 38 39 39 39 38 38 39 39 39 40 40 41 41 41 40 39 37 36 35 36 36 36
Wind_Direction
334 334 337 344 334 325 324 58 64 324 76 36 284 98 13 56 91 70 53 52 49 351 44 84 58 49 81 106 116 96 50 12 167 155 189 152 135 147 159 153 152 150 148 147 146 144 142 141 137 131 125 120 113 110 110 111 112 106 105 106 105 104 102 101 101 100 100 101 102 102 101 99 96 97 97 96 96 94 93 89 87 89 90 88 87 85 83 81 80 77 77 78 77 79 84 90 94
335 335 342 347 337 329 310 67 76 335 51 35 306 101 46 46 68 78 82 80 95 199 54 58 50 66 97 118 121 85 43 30 83 113 115 131 132 137 146 149 149 148 148 146 147 145 143 141 137 132 127 123 115 113 113 112 111 105 107 108 104 103 103 101 99 98 99 101 103 104 102 100 98 98 98 96 95 94 93 92 91 91 90 90 89 88 86 84 82 79 79 80 78 79 86 93 95
335 339 343 351 350 127 10 26 88 46 70 86 313 356 75 73 91 102 104 103 117 118 69 40 38 61 91 92 70 65 90 62 92 95 104 127 130 136 143 146 145 148 148 146 147 145 143 140 137 135 132 125 118 116 113 110 112 109 110 110 106 104 104 104 103 102 100 101 104 106 104 101 99 99 100 98 97 99 100 100 96 93 90 89 89 89 88 87 85 83 81 80 80 81 86 93 96
329 339 339 352 11 36 40 42 126 119 102 138 24 32 103 108 118 104 103 104 90 80 63 49 44 1 70 85 80 83 120 117 114 112 117 131 133 141 146 147 145 147 147 147 147 145 143 141 139 138 134 127 120 118 114 112 114 112 111 113 111 108 108 106 106 106 104 106 109 109 107 104 101 100 100 99 98 99 100 99 95 93 91 89 88 88 87 87 86 84 82 82 83 86 89 94 97
332 340 334 357 50 357 64 58 33 90 119 172 108 93 129 125 122 106 94 71 57 68 61 79 73 348 61 72 94 103 115 115 128 122 126 138 139 144 147 151 149 147 149 149 148 148 144 142 141 138 135 129 124 120 118 115 114 114 114 116 113 110 110 108 108 107 106 108 110 110 110 107 102 101 103 102 101 101 100 98 96 95 94 92 90 90 88 87 86 83 83 83 85 90 94 98 100
345 349 345 104 129 170 90 28 353 49 169 169 119 146 141 123 124 113 86 52 40 66 73 70 89 88 71 37 63 74 175 139 134 132 136 142 145 145 146 151 152 150 150 151 152 151 146 144 141 139 138 133 129 124 123 123 121 119 119 120 116 112 110 110 110 108 109 108 109 113 114 111 105 104 106 105 103 104 104 102 102 100 97 95 93 92 90 89 88 86 84 85 86 91 96 99 101
348 349 13 66 349 35 93 78 270 271 275 137 119 143 137 125 128 113 104 64 15 29 52 48 107 101 73 101 82 27 102 143 140 139 143 144 145 145 146 150 152 155 152 150 154 153 148 146 144 143 141 138 134 127 127 130 127 124 124 125 121 116 111 111 112 112 114 114 114 116 117 114 110 107 107 108 104 104 103 103 102 100 99 96 95 94 93 91 89 89 87 87 87 90 95 98 98
350 330 44 66 2 353 78 133 239 198 143 87 115 141 143 138 132 116 135 125 46 34 36 17 90 91 41 63 101 32 82 131 140 140 144 144 145 145 149 151 151 155 152 149 153 155 151 148 148 146 145 144 137 129 128 127 124 128 130 128 123 120 117 115 117 118 118 119 118 117 118 117 113 109 107 107 106 105 103 102 101 99 101 99 97 97 96 95 92 90 88 87 87 88 90 95 97
1 201 20 66 11 348 350 323 272 213 121 87 99 122 140 141 133 123 123 106 136 118 49 89 78 95 110 66 99 73 86 122 133 137 144 145 144 143 151 156 153 153 150 151 157 159 153 151 152 149 150 148 139 132 131 129 126 126 127 128 125 125 124 122 124 126 126 123 120 120 121 118 115 113 111 109 108 111 109 107 107 105 106 104 103 101 101 100 96 91 89 86 85 85 86 89 94
7 164 34 71 23 3 325 320 202 149 127 123 97 106 125 136 129 125 121 111 119 95 13 72 82 111 132 92 106 119 116 129 131 136 143 142 143 146 155 160 157 154 152 154 160 162 155 155 156 154 154 149 143 137 134 135 131 126 128 134 133 131 128 128 129 128 127 124 122 121 121 122 119 117 114 110 110 113 113 111 110 110 112 112 110 110 108 104 98 92 87 85 83 82 82 83 87
12 330 77 92 25 25 296 320 339 32 42 69 43 46 94 109 104 110 114 106 104 105 323 32 83 125 110 97 223 136 135 138 136 140 143 140 146 153 158 160 160 160 157 155 161 164 158 158 161 158 156 152 148 140 138 138 134 133 138 144 142 139 134 132 133 132 128 124 122 118 119 123 121 122 122 118 112 110 113 111 109 110 113 115 116 118 113 105 98 91 86 83 81 79 79 79 81
46 322 56 75 37 195 267 316 318 13 356 18 14 323 17 86 87 121 125 115 126 110 143 108 119 135 101 91 226 143 139 142 143 144 144 142 150 155 155 157 159 163 160 157 165 167 161 162 165 162 160 158 153 144 142 141 140 144 147 147 146 145 142 140 140 140 135 129 126 123 125 124 123 128 129 125 117 112 114 113 111 111 113 114 114 115 109 103 96 90 87 83 81 78 76 77 77
37 290 79 98 189 194 294 303 290 46 355 346 258 296 1 85 68 161 141 122 132 115 199 218 138 84 97 106 147 153 148 147 146 145 145 143 148 148 150 157 160 161 160 158 166 170 166 166 168 165 164 163 160 151 146 148 151 154 158 156 150 149 148 148 146 143 140 139 139 141 142 136 134 138 136 136 132 126 124 120 116 115 119 121 120 119 110 102 96 90 87 83 79 77 75 76 75
221 172 110 189 334 21 286 291 31 79 347 280 267 313 17 87 76 77 114 96 89 135 200 225 112 85 103 132 134 186 166 155 150 149 147 142 145 144 148 158 157 156 157 159 166 172 170 171 171 167 167 166 164 159 153 158 164 165 169 168 160 158 157 155 153 151 152 152 148 149 153 151 149 146 145 146 146 144 139 134 129 125 130 135 134 129 115 103 99 94 88 85 81 79 78 77 74
177 117 96 74 340 359 289 285 124 118 210 257 275 334 51 82 108 69 88 105 25 217 155 52 92 99 160 168 182 202 169 157 154 154 147 137 145 147 152 157 155 158 160 158 159 171 175 176 175 171 170 169 169 169 166 169 174 176 177 177 170 166 164 161 161 162 165 162 153 151 155 159 158 151 149 150 152 152 147 147 146 142 144 148 144 134 121 110 104 98 94 92 87 86 84 80 75
147 93 76 64 310 312 281 291 66 123 232 241 266 335 70 336 58 82 92 131 123 307 47 28 39 103 176 179 176 173 161 156 156 158 150 139 147 151 154 154 154 160 163 158 155 171 179 180 180 178 175 174 176 175 175 178 179 180 180 182 177 172 170 165 164 166 168 166 161 161 161 166 170 163 159 161 162 161 158 157 157 155 157 159 150 132 123 117 109 104 100 97 95 93 90 83 77
72 80 112 174 241 269 243 305 351 155 238 257 279 323 104 331 360 107 139 98 114 35 60 29 30 79 146 151 155 156 153 155 156 155 151 146 148 152 156 156 158 161 163 164 163 171 178 183 186 184 181 182 183 181 181 183 184 183 181 183 183 182 178 172 170 167 167 166 162 161 162 171 178 178 177 176 176 176 174 172 169 162 155 149 134 122 117 116 114 109 102 100 102 96 91 84 75
68 90 151 189 205 228 224 161 105 142 166 246 268 310 122 140 334 120 70 71 94 96 75 63 50 59 103 127 143 149 151 153 154 152 149 151 151 153 159 165 170 170 168 169 173 178 178 183 189 188 186 190 190 186 186 186 187 188 184 184 186 190 185 180 178 173 168 163 157 149 147 160 172 182 188 186 183 180 178 178 175 164 149 139 127 121 119 120 117 113 107 103 103 95 93 85 69
116 140 173 216 201 210 238 150 126 134 154 166 312 4 108 142 195 86 106 160 136 119 102 81 75 76 103 124 139 147 152 151 154 154 152 157 160 162 164 171 180 181 172 170 176 184 185 184 187 189 189 193 194 189 188 189 190 191 189 187 188 190 187 184 184 182 176 167 158 150 151 158 166 179 182 187 189 181 177 175 170 163 156 147 136 132 127 127 123 117 114 108 102 92 90 83 65
158 154 195 234 210 221 276 132 122 137 148 140 102 36 75 61 152 102 154 171 170 170 177 125 126 147 134 136 145 150 154 155 158 158 158 164 169 171 170 175 184 185 176 173 177 180 186 187 185 187 191 196 196 193 190 191 192 193 192 190 190 190 189 189 190 190 188 181 165 161 172 177 186 194 184 191 189 178 175 173 169 165 161 155 146 141 138 134 129 122 116 109 102 94 88 79 63
166 173 197 228 216 233 249 160 126 130 140 146 147 88 62 343 83 107 144 106 253 223 199 182 174 166 157 155 156 157 160 162 165 164 166 171 175 180 179 181 185 184 177 177 180 180 183 186 186 189 197 200 198 197 194 194 196 195 195 194 193 193 193 195 196 198 198 191 172 169 190 193 196 205 207 207 186 169 165 167 169 167 160 155 152 148 145 139 134 130 119 110 104 100 93 66 53
179 212 204 214 201 213 234 178 138 140 144 136 125 110 138 240 63 223 151 141 229 219 190 187 173 164 164 166 164 164 166 170 174 174 176 179 181 184 185 184 185 185 181 182 185 187 187 185 189 193 200 201 197 199 198 202 204 197 197 196 197 198 199 200 198 197 195 188 176 177 196 194 197 211 219 212 182 161 156 157 161 164 161 156 157 153 148 141 137 130 117 113 105 103 98 38 69
217 244 212 219 207 194 215 178 152 143 146 137 132 153 165 82 318 239 170 191 224 212 186 167 166 172 169 165 166 169 175 178 181 183 185 187 187 185 186 185 186 187 186 188 189 190 191 188 192 196 199 199 197 201 202 207 207 198 197 197 200 201 203 203 197 192 188 182 179 185 195 197 208 219 220 206 179 161 154 152 153 157 158 156 156 152 148 141 133 120 105 117 100 64 10 292 181
207 247 226 219 216 194 184 171 165 99 125 149 127 128 138 137 250 243 195 228 244 247 202 145 155 170 166 163 171 177 181 184 188 189 189 193 193 188 186 186 188 189 188 191 192 191 191 188 192 196 199 201 202 204 207 209 202 199 202 203 202 201 199 199 195 193 195 189 186 191 197 207 218 217 211 198 176 163 156 153 152 155 155 157 154 145 145 137 125 113 91 111 111 46 2 314 188
203 224 234 212 196 179 161 147 142 100 111 113 103 124 201 200 182 224 239 244 253 252 180 135 137 156 164 170 179 182 183 188 192 193 194 197 199 192 187 187 187 188 188 191 193 194 194 190 191 195 198 203 205 206 212 211 202 202 207 206 204 202 199 196 194 195 201 199 195 199 203 213 215 204 198 187 172 163 163 167 162 159 155 156 159 149 147 149 144 151 117 248 256 242 316 314 177
203 205 228 199 150 162 151 133 142 132 134 108 104 168 239 229 185 241 241 234 241 215 157 148 130 148 173 181 182 185 186 190 192 195 198 197 199 200 193 187 187 188 189 190 193 196 197 194 195 197 199 203 206 207 210 210 203 202 206 207 204 204 205 202 198 198 205 204 198 203 205 204 201 191 187 182 173 172 181 187 179 173 168 163 176 175 167 180 203 224 235 239 252 235 231 216 192
205 198 216 182 154 170 154 147 172 162 165 158 154 213 247 222 196 244 250 237 228 180 166 171 147 161 183 187 189 189 190 193 193 193 196 194 195 201 201 194 190 190 189 189 193 197 197 197 199 201 202 203 204 206 207 207 204 202 206 209 205 202 206 208 202 201 208 207 202 205 200 189 191 190 189 185 175 178 190 193 189 187 188 189 194 195 189 202 218 224 230 235 247 248 246 251 262
214 185 197 176 149 172 160 157 179 154 199 194 168 234 268 214 215 226 226 230 189 163 178 183 176 185 189 192 195 191 194 196 194 190 192 196 195 198 202 202 196 192 192 192 194 195 196 198 201 203 206 204 202 203 203 205 206 203 205 210 207 201 203 206 203 203 209 211 209 206 196 184 188 195 195 189 183 185 190 192 193 189 194 202 203 205 208 218 229 228 231 237 244 251 258 260 253
165 146 175 181 138 169 191 170 168 159 207 191 148 308 276 227 231 222 210 212 180 170 184 189 193 197 195 198 194 194 198 194 192 194 196 199 200 199 202 204 200 196 197 197 196 196 196 198 201 203 207 207 204 201 200 203 206 203 203 210 211 204 202 202 201 204 209 213 213 205 195 187 189 197 199 196 195 195 194 192 194 191 195 202 203 211 219 230 239 236 236 239 243 242 247 254 215
174 138 142 165 147 219 217 186 155 166 202 168 142 281 255 234 240 233 224 209 181 186 198 200 203 201 204 204 194 199 198 190 193 201 201 200 202 203 204 205 204 201 201 199 198 197 197 198 200 201 204 207 206 203 200 201 204 203 203 208 211 207 204 200 198 203 210 213 211 203 197 193 191 195 200 203 202 202 204 203 200 197 198 202 209 219 227 238 239 237 240 239 241 238 238 245 222
166 184 135 155 179 237 215 186 161 175 214 152 142 245 252 254 257 250 244 203 182 202 212 210 214 208 209 207 202 206 201 197 200 203 203 203 203 205 207 206 205 206 204 201 201 200 198 199 199 200 202 205 206 203 201 201 204 204 204 208 211 208 205 202 199 203 209 212 209 205 202 200 197 195 197 202 203 204 208 209 206 202 203 209 218 225 230 238 231 229 232 225 223 222 231 245 233
154 196 214 175 180 240 234 197 175 182 219 154 148 234 264 267 257 252 252 203 188 205 216 218 220 214 209 208 206 208 210 207 205 204 204 205 206 206 208 208 206 207 206 204 203 201 201 201 201 201 202 204 205 204 203 201 203 206 207 209 210 208 207 204 204 205 207 208 208 210 208 204 204 201 199 201 203 205 207 209 208 208 213 218 222 225 228 230 224 222 221 220 223 216 212 215 213
246 195 196 183 174 223 285 245 195 182 167 181 192 223 260 268 267 262 244 203 193 204 215 219 221 219 211 209 207 205 209 212 210 207 205 205 208 209 209 209 208 209 208 206 204 203 203 204 204 203 204 205 205 205 204 202 202 206 210 210 209 209 208 206 207 208 206 205 209 213 213 210 208 206 205 204 206 209 210 212 213 215 218 219 221 222 223 224 216 214 216 219 226 222 209 202 206
225 189 189 206 177 187 230 256 215 181 168 201 218 232 234 246 287 297 251 192 183 200 215 218 222 225 216 209 209 207 203 206 209 208 207 207 209 211 211 210 209 210 209 208 207 206 206 206 206 206 206 206 207 206 204 204 203 205 210 212 211 211 211 211 209 211 210 207 209 214 216 216 213 211 210 209 211 214 215 215 217 216 212 214 218 217 219 221 209 206 215 217 216 219 211 205 215
183 182 185 221 196 195 208 225 210 179 188 207 203 230 244 247 267 274 271 228 190 208 215 219 226 229 227 216 211 210 205 207 209 207 208 208 208 210 211 211 210 210 210 209 209 210 208 208 208 207 207 207 207 207 205 205 204 205 209 212 213 213 214 215 214 213 213 210 211 215 218 219 218 217 215 214 215 217 217 216 216 213 209 213 215 214 217 216 205 205 215 215 207 213 212 208 222
174 172 169 196 212 216 213 221 211 180 191 214 198 217 240 244 249 249 259 243 215 227 225 224 229 230 233 225 217 213 210 212 211 210 209 208 208 209 209 210 209 210 210 209 209 210 209 208 207 206 207 207 206 206 204 204 204 205 207 209 211 213 215 217 218 218 216 213 213 215 219 220 222 221 219 219 218 219 220 218 215 211 212 214 211 213 217 213 207 208 215 215 206 206 212 217 229
163 167 181 199 213 231 224 225 223 184 186 216 206 215 234 239 242 241 244 236 229 236 234 234 232 229 230 224 221 215 214 216 211 211 212 209 208 208 208 208 208 208 209 208 208 209 208 206 206 206 207 206 205 205 203 203 203 203 205 207 209 212 214 217 219 220 219 217 216 216 219 222 223 223 223 222 221 222 222 220 215 211 213 215 213 216 220 215 212 212 214 217 215 210 212 216 222
166 179 190 203 210 223 232 235 223 190 192 227 216 220 237 242 242 239 236 232 232 230 229 234 232 228 227 223 222 218 218 220 210 211 210 207 208 206 206 206 205 205 206 207 207 208 207 206 207 208 206 205 207 207 205 204 204 205 205 208 210 211 214 216 219 221 222 221 219 219 221 222 224 224 224 224 224 224 222 220 216 212 214 217 219 221 222 219 216 217 216 217 218 217 216 213 213
193 185 184 207 205 204 236 263 232 196 200 235 227 226 240 248 249 244 235 231 233 226 220 226 226 225 226 223 223 220 220 219 212 212 207 204 206 205 204 204 205 206 207 207 207 207 207 207 209 209 208 207 208 209 209 208 208 208 209 210 211 213 216 219 222 224 224 224 223 222 222 223 224 224 225 226 226 225 223 220 217 215 216 217 220 221 222 219 217 219 218 218 216 215 217 211 210
212 184 179 203 173 175 225 275 281 225 207 198 225 246 253 262 267 258 239 234 243 239 227 227 223 221 224 222 222 220 217 217 215 215 207 203 204 203 203 204 204 206 207 207 206 206 207 209 210 210 210 211 211 211 212 212 211 210 212 214 216 216 219 221 223 226 226 225 225 223 223 224 223 224 225 225 226 226 224 222 219 218 218 219 220 221 220 218 217 219 219 219 215 210 210 207 207
217 202 187 182 172 187 220 247 205 267 276 232 33 301 269 235 244 253 246 236 245 247 239 240 235 230 231 228 226 223 217 212 211 213 210 204 203 203 203 204 204 204 206 207 207 207 208 211 212 212 212 212 213 214 214 213 212 212 211 213 216 216 218 219 218 221 223 223 223 222 222 222 223 224 225 225 227 227 225 223 221 219 219 220 221 222 222 220 219 220 220 218 216 213 210 206 204
216 216 197 172 175 193 136 115 162 197 277 263 113 273 271 223 225 246 252 235 241 246 242 242 243 239 238 237 232 227 224 218 213 211 209 206 205 205 204 204 204 205 207 208 208 209 210 211 211 211 212 213 215 215 214 212 212 212 210 208 209 209 212 214 214 216 218 219 221 220 220 221 222 223 224 225 227 227 226 224 222 221 220 220 222 224 224 223 222 221 221 220 219 220 216 210 204
216 207 183 169 176 182 165 186 201 194 245 269 156 220 268 289 242 246 260 257 251 255 249 244 245 242 236 236 231 225 224 224 222 218 211 209 207 204 204 205 204 206 209 209 209 210 211 212 211 211 212 213 214 214 213 212 212 213 212 211 211 210 212 217 218 219 219 220 220 219 219 220 220 221 222 225 227 227 226 224 224 223 222 222 224 225 226 225 224 222 222 223 224 224 220 214 207
216 165 158 180 185 191 196 192 221 225 244 299 290 195 271 282 252 233 241 254 260 260 254 246 242 241 237 235 233 226 223 219 217 219 214 213 211 206 206 207 207 209 210 209 208 209 211 211 211 211 212 214 214 213 212 212 212 213 214 214 216 216 218 221 220 220 220 220 219 219 219 218 219 220 222 224 225 226 225 224 224 224 224 224 225 227 227 227 227 224 223 225 227 226 222 218 212
208 137 154 178 160 171 302 109 213 236 98 261 252 131 276 270 251 230 231 237 251 254 251 247 241 237 235 235 234 229 226 221 215 215 214 214 215 213 211 210 211 212 212 211 210 210 211 211 211 212 212 214 214 213 212 212 213 213 214 215 218 221 223 225 223 220 219 219 218 219 219 218 219 220 221 223 224 225 225 224 224 224 224 225 226 227 227 227 227 224 223 224 226 226 223 221 216
149 122 127 103 85 82 68 106 147 63 259 238 210 165 234 265 227 182 216 222 235 246 247 247 246 241 233 232 236 233 230 228 222 219 217 217 218 218 217 214 214 215 214 214 213 213 212 210 210 211 213 215 215 214 213 213 214 214 215 217 219 223 224 224 224 221 219 217 218 219 219 219 219 220 221 222 223 224 224 225 224 224 224 224 226 227 226 226 226 224 224 224 224 224 221 219 219
106 99 98 87 64 47 51 85 90 89 255 235 189 173 199 265 237 177 201 208 214 231 241 245 250 251 243 237 237 233 228 226 224 224 223 221 222 222 220 217 217 216 215 215 215 215 215 213 211 211 214 215 215 215 215 215 215 215 217 219 221 223 223 221 220 219 218 217 218 220 220 220 221 221 221 222 223 224 224 225 225 225 225 225 226 227 226 225 225 224 224 225 224 222 219 219 220
116 103 119 122 80 40 29 359 84 221 248 231 175 163 171 236 248 201 236 248 226 222 228 240 242 244 245 242 243 237 225 221 218 220 222 219 221 223 220 219 219 217 215 215 215 215 215 215 213 213 215 216 216 215 215 216 216 217 219 221 222 224 222 220 220 220 219 217 218 220 220 221 221 222 222 222 223 223 223 224 225 225 225 225 226 227 227 225 223 223 222 222 221 220 219 219 219
142 134 149 159 171 181 194 207 205 221 248 238 154 145 175 236 250 253 265 275 262 232 221 232 234 240 251 248 250 247 227 218 214 213 218 213 214 216 215 217 217 215 215 215 215 214 214 215 214 214 215 216 215 215 215 216 216 218 220 221 223 224 224 223 223 224 223 221 221 220 220 220 220 221 221 222 223 222 222 223 223 224 225 226 227 227 226 224 222 221 220 220 219 218 218 219 221
170 167 173 182 177 183 198 199 215 225 234 221 129 122 233 267 269 243 241 248 251 242 230 231 230 242 260 253 251 254 233 219 214 213 215 211 211 213 213 216 215 214 215 216 215 214 213 214 214 215 218 218 216 215 216 216 217 220 222 222 223 224 224 225 226 227 227 225 224 223 222 221 221 222 222 223 223 222 222 223 224 225 226 226 227 226 225 223 221 220 219 219 218 218 218 220 223
186 179 181 195 187 190 198 188 207 216 208 224 143 130 210 218 255 239 228 239 252 260 266 263 256 247 247 246 250 261 253 233 220 216 219 217 214 213 215 218 218 217 217 216 216 215 214 214 215 216 219 220 217 216 216 217 219 221 223 223 224 224 225 227 228 229 229 228 227 226 226 225 225 226 226 225 224 223 223 224 225 227 227 226 226 225 224 222 221 219 219 219 219 219 220 221 223
193 168 181 206 191 171 177 174 191 165 116 222 204 234 218 203 269 275 253 260 263 266 270 270 271 264 243 243 249 254 258 253 237 224 225 230 224 218 218 221 223 223 220 217 215 214 213 214 215 217 221 222 220 218 218 218 220 222 223 224 225 225 225 227 228 230 230 229 229 228 228 228 228 229 230 229 228 227 226 226 226 228 228 226 225 224 223 221 220 220 219 219 219 221 223 223 223
175 172 186 190 134 134 132 159 147 106 185 225 187 249 280 302 280 262 241 250 253 249 249 244 258 269 254 245 247 247 251 249 236 224 221 225 220 216 218 221 224 224 221 217 215 215 214 214 215 218 221 223 222 220 220 221 221 222 223 224 225 225 225 226 228 229 230 229 229 230 231 231 231 231 232 232 231 230 229 227 226 228 228 226 224 223 221 220 220 219 219 218 219 222 224 224 224
168 186 179 137 73 92 101 144 81 85 232 246 192 229 248 258 263 252 217 229 239 247 246 226 245 263 259 250 247 242 242 242 240 234 232 228 219 219 220 222 224 223 221 219 217 217 217 217 218 218 220 222 223 223 222 223 223 222 223 224 225 226 226 227 228 229 230 228 228 230 230 231 232 232 233 233 232 230 228 226 225 226 226 225 224 221 220 219 218 217 217 218 219 221 222 221 221
196 180 164 146 159 188 156 182 191 180 222 253 227 225 228 210 228 242 200 217 228 245 255 246 240 241 242 249 251 250 248 247 247 240 237 235 229 229 227 225 226 223 222 221 219 218 217 219 220 220 223 225 225 225 224 225 225 224 225 226 227 227 227 228 229 229 229 229 230 230 230 231 232 232 233 232 231 229 226 223 222 223 223 223 222 220 219 218 216 216 215 216 219 220 218 213 211
263 139 159 178 184 182 181 176 163 180 211 243 242 221 233 225 208 186 211 219 216 233 243 234 230 228 227 236 245 248 242 230 227 221 226 234 233 232 231 231 232 229 229 228 225 223 221 221 221 222 224 226 226 226 225 225 226 226 227 227 228 228 228 229 229 228 228 229 231 232 231 232 232 232 232 231 229 227 223 220 220 221 221 220 219 217 217 217 216 216 217 216 217 215 212 210 210
172 161 174 192 180 144 176 179 150 141 173 227 249 246 252 248 193 185 210 221 217 230 240 229 225 226 225 230 235 236 229 217 212 203 208 219 221 219 218 226 230 228 228 229 228 228 227 226 226 225 225 225 226 227 226 227 227 227 227 228 229 229 229 229 230 229 230 231 232 233 234 233 232 232 231 229 227 225 222 219 218 219 220 221 220 217 216 216 215 215 215 214 214 212 213 215 216
178 179 179 182 168 133 168 202 188 127 159 187 214 259 262 239 194 194 204 214 218 226 231 224 226 229 225 227 227 216 200 198 201 200 201 206 209 207 206 215 220 219 221 221 221 224 225 226 227 227 227 227 228 229 229 229 230 230 230 231 232 232 232 232 231 232 233 234 234 235 235 235 233 233 232 229 227 225 222 220 219 220 221 222 222 219 216 214 213 212 211 211 213 215 216 215 212